Bookmark and Share
Track history (hours):
 

Noordam (Netherlands)

Ship's website: http://www.hollandamerica.com/cruiseships/Noordam

Last reported at 2014-Apr-18 15:00 UTC. Time now 2014-Apr-24 03:41 UTC.
Position N 37°24' E 018°36'.

Type: Passenger vessel. MMSI: 246028000.

Waves 0.5 meters (2 feet), 5 second period

Barometer 1009.0 mb
Air temperature 13.9 ° C
Visibility: greater than 10.8 NM
Dewpoint 6.3 ° C
Water temperature 16.6 ° C

NotesDate/timePositionNaut miles runAvg speedWind from/ knotsBaromVisibWave heightAir tempDewpointWater temp
2014-Apr-18 15:00N 37°24' E 018°36'   1009.010.8 0.513.9 6.316.6
2014-Apr-15 23:11N 40°13' E 013°31'1516.5
2014-Apr-15 22:18N 40°24' E 013°18'1216.6
2014-Apr-15 21:33N 40°33' E 013°07'27 1.0
2014-Apr-14 17:34N 40°54' E 013°30'1413.7
2014-Apr-14 16:34N 40°45' E 013°44'1312.9
2014-Apr-14 15:34N 40°40' E 013°60'1414.1
2014-Apr-14 14:34N 40°48' E 014°15'234 5.7
2014-Apr-12 21:19N 37°37' E 011°21'1113.9
2014-Apr-12 20:33N 37°30' E 011°11'1414.1
2014-Apr-12 19:34N 37°20' E 010°59'2014.4
2014-Apr-12 18:10N 37°06' E 010°41'1014.2
2014-Apr-12 17:28N 36°58' E 010°34'16 1.6
2014-Apr-12 07:18N 36°49' E 010°18'0 0.4
2014-Apr-12 06:33N 36°49' E 010°18'6 6.0
2014-Apr-12 05:33N 36°51' E 010°25'1110.9
2014-Apr-12 04:32N 37°02' E 010°28'1111.1
2014-Apr-12 03:33N 37°12' E 010°28'1110.8
2014-Apr-12 02:33N 37°23' E 010°28'1110.8
2014-Apr-12 01:33N 37°34' E 010°28'1110.9
2014-Apr-12 00:33N 37°45' E 010°26'1111.2
2014-Apr-11 23:33N 37°56' E 010°25'1111.2
2014-Apr-11 22:33N 38°07' E 010°23'1110.8
2014-Apr-11 21:32N 38°18' E 010°23'2211.2
2014-Apr-11 19:32N 38°40' E 010°21'1111.2
2014-Apr-11 18:32N 38°52' E 010°19'18311.8
2014-Apr-11 03:00N 41°54' E 009°54'24 8.5 340 / 61017.010.8 14.813.8
2014-Apr-11 00:08N 42°18' E 009°55'2111.5
2014-Apr-10 22:18N 42°39' E 009°54'811.2
2014-Apr-10 21:33N 42°47' E 009°57'1111.2
2014-Apr-10 20:34N 42°58' E 009°60'1111.1
2014-Apr-10 19:33N 43°09' E 010°04'1111.1
2014-Apr-10 18:34N 43°20' E 010°07'1110.9
2014-Apr-10 17:34N 43°30' E 010°12'5 4.8
2014-Apr-10 16:31N 43°33' E 010°18'0 0.0
2014-Apr-10 15:33N 43°33' E 010°18'0 0.0
2014-Apr-10 14:33N 43°33' E 010°18'0 0.0
2014-Apr-10 13:33N 43°33' E 010°18'0 0.0
2014-Apr-10 12:32N 43°33' E 010°18'0 0.0
2014-Apr-10 11:32N 43°33' E 010°18'0 0.0
2014-Apr-10 10:30N 43°33' E 010°18'0 0.0
2014-Apr-10 09:33N 43°33' E 010°18'0 0.0
2014-Apr-10 08:32N 43°33' E 010°18'0 0.0
2014-Apr-10 07:32N 43°33' E 010°18'0 0.0
2014-Apr-10 06:33N 43°33' E 010°18'0 0.0
2014-Apr-10 05:30N 43°33' E 010°18'0 0.1
2014-Apr-10 04:33N 43°33' E 010°18'5 5.2
2014-Apr-10 03:33N 43°29' E 010°13'8 7.9
2014-Apr-10 02:33N 43°24' E 010°05'8 8.3
2014-Apr-10 01:33N 43°20' E 009°55'5 5.2
2014-Apr-10 00:33N 43°14' E 009°54'5 5.0
2014-Apr-09 23:33N 43°12' E 009°48'7 6.8
2014-Apr-09 22:33N 43°14' E 009°39'7 6.7
2014-Apr-09 21:33N 43°12' E 009°30'7 6.6
2014-Apr-09 20:33N 43°09' E 009°22'39 7.8
2014-Apr-09 15:33N 42°38' E 008°49'5 4.5
2014-Apr-09 14:31N 42°34' E 008°46'0 0.0
2014-Apr-09 13:26N 42°34' E 008°46'70 5.6
2014-Apr-09 01:00N 43°30' E 007°48'16 4.7 050 / 161017.010.8 14.213.1
2014-Apr-08 21:31N 43°41' E 007°32'  

Dump ship's entire track history

sailing weather and tide predictions

Noordam — PHET — position and weather